Regional Weather Roundup
Issued by NWS Nashville, TN

Home | Current Version | Previous Version | Text Only | Print | Product List | Glossary On
Versions: 1 2 3 4 5 6 7 8 9 10 11 12 13 14 15 16 17 18 19 20 21 22 23 24 25 26 27 28 29 30 31 32 33 34 35 36 37 38 39 40 41 42 43 44 45 46 47 48 49 50
000
ASUS44 KOHX 262310
RWROHX
MIDDLE TENNESSEE HOURLY WEATHER ROUNDUP
NATIONAL WEATHER SERVICE NASHVILLE TN
600 PM CDT SAT MAY 26 2018

NOTE: "FAIR" INDICATES FEW OR NO CLOUDS BELOW 12,000 FEET WITH
NO SIGNIFICANT WEATHER AND/OR OBSTRUCTIONS TO VISIBILITY.

* THESE REPORTS ARE NOT UNDER NWS QUALITY CONTROL AND MAY NOT
  REPORT WEATHER SUCH AS PRECIPITATION AND FOG.


TNZ005>011-023>034-057-059-062>066-078-080-270000
...NORTHERN MIDDLE TENNESSEE...

CITY           SKY/WX    TMP DP  RH WIND       PRES   REMARKS
CLARKSVILLE      N/A     80  68  66 S6        29.82F
CROSSVILLE       N/A     73  68  84 SW3       29.92S
DICKSON        SUNNY     73  70  88 VRB5      29.85F
LIVINGSTON     SUNNY     81  66  61 W8        29.86S
NASHVILLE        N/A     79  69  71 S3        29.85F
PORTLAND       SUNNY     77  68  73 W5        29.84F
ROCKWOOD       CLOUDY    77  68  73 SW3       29.90S
SMYRNA           N/A     77  71  82 NW3       29.86F
SPARTA         PTSUNNY   77  68  73 SW9G16    29.87R
SPRINGFIELD    SUNNY     77  72  83 S5        29.83F
WEST NASHVILLE SUNNY     79  70  73 W5        29.83F
$$
TNZ056-058-060-061-075>077-079-093>097-270000
...SOUTHERN MIDDLE TENNESSEE...

CITY           SKY/WX    TMP DP  RH WIND       PRES   REMARKS
COLUMBIA       SUNNY     79  72  78 CALM      29.83F
LEWISBURG      SUNNY     79  68  69 S9G15     29.85F
MCMINNVILLE    PTSUNNY   77  68  73 W9        29.87S
MURFREESBORO   SUNNY     79  66  65 VRB6      29.85S
PULASKI        SUNNY     84  70  61 VRB3      29.85F
SHELBYVILLE    SUNNY     73  70  88 CALM      29.86F
TULLAHOMA      PTSUNNY   79  70  73 NW6       29.87S
WINCHESTER     MOSUNNY   75  68  78 CALM      29.87F HAZE
$$


...KEY TO REMARKS...
VSB - VISIBILITY IN MILES
WCI - WIND CHILL INDEX
HX  - HEAT INDEX




USA.gov is the U.S. government's official web portal to all federal, state and local government web resources and services.